{"data":{"norad_id":55346,"epoch":"2026-09-20T09:17:51.944928Z","epoch_age_seconds":106355,"freshness":"FRESH","line1":"1 55346U 23013R   26263.38740677 -.00002464  00000+0 -80056-4 0  9993","line2":"2 55346  43.0046 283.5349 0001614 274.4063  85.6604 15.27572901201454","mean_motion":15.27572901,"eccentricity":0.0001614,"inclination_deg":43.0046,"raan_deg":283.5349,"arg_perigee_deg":274.4063,"mean_anomaly_deg":85.6604,"bstar":-8.0056e-5,"rev_number":20145,"period_min":94.267186793987,"perigee_km":481.96295421504,"apogee_km":484.17775194861,"semimajor_km":6861.2073530818,"source":"CELESTRAK","updated_at":"2026-09-21T09:00:33.181513Z"}}